Location: Grums
(59.3529°N, 13.1129°E)
Time: 00:48:12
(UTC+01:00)

SEEDS - Pass Details

Date: 28 November 2021
Orbit: 584 x 600 km, 97.6° (Epoch: 27 January)

Event Time Altitude Azimuth Distance (km) Brightness Sun altitude
Rises 16:58:33 0° 211° (SSW) 2,832 ? -11.4°
Reaches altitude 10° 17:01:23 10° 232° (SW) 1,932 ? -11.7°
Maximum altitude 17:04:09 17° 273° (W) 1,527 ? -12.0°
Drops below altitude 10° 17:06:56 10° 315° (NW) 1,935 ? -12.4°
Sets 17:09:46 0° 336° (NNW) 2,838 ? -12.7°
